Location: Newark
(5.8900°S, 42.6378°W)
Time: 04:23:07
(UTC+00:00)

X-37B - Pass Details

Date: 23 September 2020
Orbit: 382 x 392 km, 45.0° (Epoch: 15 October)

Event Time Altitude Azimuth Distance (km) Brightness Sun altitude
Rises 21:11:28 0° 193° (SSW) 2,273 4.7 -7.1°
Reaches altitude 10° 21:14:37 10° 159° (SSE) 1,411 3.2 -7.9°
Maximum altitude 21:15:52 12° 136° (SE) 1,306 2.9 -8.2°
Drops below altitude 10° 21:17:08 10° 112° (ESE) 1,406 2.8 -8.5°
Enters shadow 21:17:12 10° 111° (ESE) 1,416 2.8 -8.5°
